sat.trackr.live / text

‹ back to catalog

ZHONGXING-4A

NORAD 60606 · 2024-151A

PAYLOAD ACTIVE UNKNOWN

§ Identity

Operator
Country
PRC
Launch date
2024-08-22
Launch site
WSC
Launch vehicle
Mass (kg)
RCS (m²)

Purposes: comms

External: N2YO · Heavens-Above · Gunter

§ Orbital elements

Epoch: 2026-09-19T20:20:23.781408Z

Period
1,436.11 min
Inclination
1.0773°
Eccentricity
0.0000833
Mean motion
1.00271142 rev/d
Perigee alt
35,783.3 km
Apogee alt
35,790.3 km
Semi-major
42,164.9 km
B*
0.0000e+0
RAAN
269.9698°
Arg perigee
19.7572°
Mean anomaly
132.3688°
Rev number
770

§ Raw data

ZHONGXING-4A1 60606U 24151A   26262.84749747 -.00000368  00000+0  00000+0 0  99952 60606   1.0773 269.9698 0000833  19.7572 132.3688  1.00271142  7705

JSON: /api/v1/satellites/60606 · /tle

For live sub-satellite position, see the globe view (requires WebGL).

§ Visibility from observer

Set your observer location to see the next 7 days of passes ≥ 10°. The values pass through the URL so the page stays shareable.

No JS? Fill the form by hand. The geolocation button needs JavaScript.